Latest Weather Observations for South Channel Island

IDV60901

Issued at 12:15 pm EST Thursday 2 October 2014 (issued every 10 minutes, with the page automatically refreshed every 10 minutes)

About weather observations | Map of Melbourne area stations | Latest observations for Melbourne area | Other Formats
Station Details ID: 086344 Name: SOUTH CHANNEL ISLAND Lat: -38.31 Lon: 144.80 Height: 9.0 m
Data from the previous 72 hours. | See also: Recent months for locations in Victoria
Date/Time
EST
Tmp

°C
App
Tmp
°C
Dew
Point
°C
Rel
Hum
%
Delta-T

°C
Wind Press
QNH
hPa
Press
MSL
hPa
Rain
since
9 am
mm
Dir
 
Spd
km/h
Gust
km/h
Spd
kts
Gust
kts
02/12:00pm - - - - - WSW 24 30 13 16 - - -
02/11:30am - - - - - W 30 35 16 19 - - -
02/11:00am - - - - - W 32 39 17 21 - - -
02/10:30am - - - - - W 35 41 19 22 - - -
02/10:00am - - - - - WNW 35 41 19 22 - - -
02/09:30am - - - - - WNW 33 39 18 21 - - -
02/09:00am - - - - - WNW 35 41 19 22 - - -
02/08:30am - - - - - WNW 35 41 19 22 - - -
02/08:00am - - - - - WNW 37 43 20 23 - - -
02/07:30am - - - - - WNW 39 44 21 24 - - -
02/07:00am - - - - - WNW 35 41 19 22 - - -
02/06:30am - - - - - WNW 39 44 21 24 - - -
02/06:00am - - - - - WNW 37 46 20 25 - - -
02/05:30am - - - - - WNW 35 39 19 21 - - -
02/05:00am - - - - - WNW 37 46 20 25 - - -
02/04:30am - - - - - WNW 39 48 21 26 - - -
02/04:00am - - - - - WNW 35 39 19 21 - - -
02/03:30am - - - - - WNW 35 41 19 22 - - -
02/03:00am - - - - - WNW 35 41 19 22 - - -
02/02:30am - - - - - WNW 39 46 21 25 - - -
02/02:00am - - - - - WNW 35 41 19 22 - - -
02/01:30am - - - - - WNW 33 39 18 21 - - -
02/01:00am - - - - - WNW 32 35 17 19 - - -
02/12:30am - - - - - WNW 30 35 16 19 - - -
02/12:00am - - - - - WNW 30 35 16 19 - - -
 
Date/Time
EST
Tmp

°C
App
Tmp
°C
Dew
Point
°C
Rel
Hum
%
Delta-T

°C
Wind Press
QNH
hPa
Press
MSL
hPa
Rain
since
9 am
mm
Dir
 
Spd
km/h
Gust
km/h
Spd
kts
Gust
kts
01/11:30pm - - - - - WNW 30 33 16 18 - - -
01/11:00pm - - - - - WNW 30 33 16 18 - - -
01/10:30pm - - - - - W 30 33 16 18 - - -
01/10:00pm - - - - - W 30 35 16 19 - - -
01/09:30pm - - - - - W 37 41 20 22 - - -
01/09:00pm - - - - - W 33 41 18 22 - - -
01/08:30pm - - - - - W 33 39 18 21 - - -
01/08:00pm - - - - - WSW 35 41 19 22 - - -
01/07:30pm - - - - - W 35 44 19 24 - - -
01/07:00pm - - - - - W 30 33 16 18 - - -
01/06:30pm - - - - - WSW 37 43 20 23 - - -
01/06:00pm - - - - - SW 39 46 21 25 - - -
01/05:30pm - - - - - SW 37 43 20 23 - - -
01/05:00pm - - - - - SW 37 43 20 23 - - -
01/04:30pm - - - - - SW 33 41 18 22 - - -
01/04:00pm - - - - - SW 35 43 19 23 - - -
01/03:30pm - - - - - WSW 32 41 17 22 - - -
01/03:00pm - - - - - WSW 41 50 22 27 - - -
01/02:30pm - - - - - WSW 37 50 20 27 - - -
01/02:00pm - - - - - WSW 35 43 19 23 - - -
01/01:30pm - - - - - WSW 35 43 19 23 - - -
01/01:00pm - - - - - WSW 37 43 20 23 - - -
01/12:30pm - - - - - SW 35 41 19 22 - - -
01/12:07pm - - - - - SW 37 43 20 23 - - -
01/12:00pm - - - - - WSW 39 50 21 27 - - -
01/11:55am - - - - - WSW 37 48 20 26 - - -
01/11:30am - - - - - WSW 26 30 14 16 - - -
01/11:03am - - - - - WSW 41 48 22 26 - - -
01/11:00am - - - - - W 32 54 17 29 - - -
01/10:30am - - - - - W 35 46 19 25 - - -
01/10:00am - - - - - W 32 37 17 20 - - -
01/09:55am - - - - - W 30 37 16 20 - - -
01/09:30am - - - - - W 17 19 9 10 - - -
01/09:14am - - - - - W 30 48 16 26 - - -
01/09:00am - - - - - WSW 39 50 21 27 - - -
01/08:48am - - - - - WSW 39 48 21 26 - - -
01/08:30am - - - - - W 33 37 18 20 - - -
01/08:00am - - - - - WSW 35 48 19 26 - - -
01/07:55am - - - - - WSW 41 48 22 26 - - -
01/07:30am - - - - - WNW 32 41 17 22 - - -
01/07:14am - - - - - SW 35 37 19 20 - - -
01/07:00am - - - - - W 37 44 20 24 - - -
01/06:30am - - - - - W 39 44 21 24 - - -
01/06:00am - - - - - W 37 46 20 25 - - -
01/05:57am - - - - - WNW 37 46 20 25 - - -
01/05:34am - - - - - SW 35 54 19 29 - - -
01/05:30am - - - - - SW 39 54 21 29 - - -
01/05:27am - - - - - SW 41 54 22 29 - - -
01/05:00am - - - - - WNW 39 48 21 26 - - -
01/04:53am - - - - - WNW 39 43 21 23 - - -
01/04:30am - - - - - WSW 50 67 27 36 - - -
01/04:23am - - - - - W 41 67 22 36 - - -
01/04:00am - - - - - WNW 35 48 19 26 - - -
01/03:57am - - - - - WNW 35 41 19 22 - - -
01/03:30am - - - - - W 41 52 22 28 - - -
01/03:00am - - - - - WSW 43 48 23 26 - - -
01/02:59am - - - - - WSW 43 48 23 26 - - -
01/02:30am - - - - - WNW 44 54 24 29 - - -
01/02:00am - - - - - W 44 52 24 28 - - -
01/01:30am - - - - - W 44 54 24 29 - - -
01/01:00am - - - - - W 43 54 23 29 - - -
01/12:30am - - - - - W 50 61 27 33 - - -
01/12:00am - - - - - W 43 52 23 28 - - -
 
Date/Time
EST
Tmp

°C
App
Tmp
°C
Dew
Point
°C
Rel
Hum
%
Delta-T

°C
Wind Press
QNH
hPa
Press
MSL
hPa
Rain
since
9 am
mm
Dir
 
Spd
km/h
Gust
km/h
Spd
kts
Gust
kts
30/11:30pm - - - - - WNW 54 61 29 33 - - -
30/11:00pm - - - - - W 56 65 30 35 - - -
30/10:30pm - - - - - WNW 48 57 26 31 - - -
30/10:00pm - - - - - W 52 57 28 31 - - -
30/09:50pm - - - - - WSW 59 70 32 38 - - -
30/09:46pm - - - - - W 50 76 27 41 - - -
30/09:30pm - - - - - W 50 57 27 31 - - -
30/09:00pm - - - - - W 44 56 24 30 - - -
30/08:30pm - - - - - W 43 50 23 27 - - -
30/08:00pm - - - - - W 44 54 24 29 - - -
30/07:32pm - - - - - W 54 72 29 39 - - -
30/07:30pm - - - - - W 52 67 28 36 - - -
30/07:00pm - - - - - W 48 57 26 31 - - -
30/06:30pm - - - - - W 54 61 29 33 - - -
30/06:00pm - - - - - W 52 61 28 33 - - -
30/05:30pm - - - - - W 46 61 25 33 - - -
30/05:00pm - - - - - W 50 57 27 31 - - -
30/04:30pm - - - - - W 57 67 31 36 - - -
30/04:03pm - - - - - W 70 89 38 48 - - -
30/04:00pm - - - - - W 74 89 40 48 - - -
30/03:40pm - - - - - WSW 61 83 33 45 - - -
30/03:30pm - - - - - WSW 67 78 36 42 - - -
30/03:00pm - - - - - W 72 85 39 46 - - -
30/02:30pm - - - - - W 78 98 42 53 - - -
30/02:24pm - - - - - W 80 98 43 53 - - -
30/02:20pm - - - - - W 80 93 43 50 - - -
30/02:00pm - - - - - NW 57 76 31 41 - - -
30/01:58pm - - - - - NW 54 76 29 41 - - -
30/01:30pm - - - - - NNW 57 70 31 38 - - -
30/01:00pm - - - - - NNW 59 72 32 39 - - -
30/12:50pm - - - - - NNW 57 76 31 41 - - -
30/12:30pm - - - - - NNW 57 72 31 39 - - -
30/12:24pm - - - - - NNW 54 72 29 39 - - -
30/12:00pm - - - - - NNW 46 61 25 33 - - -
30/11:30am - - - - - NNW 48 63 26 34 - - -
30/11:14am - - - - - NNW 46 67 25 36 - - -
30/11:00am - - - - - NW 39 48 21 26 - - -
30/10:46am - - - - - NW 39 43 21 23 - - -
30/10:30am - - - - - N 37 44 20 24 - - -
30/10:00am - - - - - N 37 43 20 23 - - -
30/09:30am - - - - - N 33 39 18 21 - - -
30/09:00am - - - - - N 41 48 22 26 - - -
30/08:30am - - - - - N 39 44 21 24 - - -
30/08:00am - - - - - N 41 48 22 26 - - -
30/07:30am - - - - - N 33 39 18 21 - - -
30/07:00am - - - - - NNW 28 32 15 17 - - -
30/06:30am - - - - - NNW 20 26 11 14 - - -
30/06:00am - - - - - NNW 24 30 13 16 - - -
30/05:30am - - - - - NNW 24 28 13 15 - - -
30/05:00am - - - - - NNW 19 22 10 12 - - -
30/04:30am - - - - - NNW 20 26 11 14 - - -
30/04:00am - - - - - NW 19 22 10 12 - - -
30/03:30am - - - - - NW 22 26 12 14 - - -
30/03:00am - - - - - NNW 11 13 6 7 - - -
30/02:30am - - - - - N 9 9 5 5 - - -
30/02:00am - - - - - CALM 0 4 0 2 - - -
30/01:30am - - - - - S 11 13 6 7 - - -
30/01:00am - - - - - SSE 13 15 7 8 - - -
30/12:30am - - - - - S 19 20 10 11 - - -
30/12:00am - - - - - S 22 26 12 14 - - -
 
Date/Time
EST
Tmp

°C
App
Tmp
°C
Dew
Point
°C
Rel
Hum
%
Delta-T

°C
Wind Press
QNH
hPa
Press
MSL
hPa
Rain
since
9 am
mm
Dir
 
Spd
km/h
Gust
km/h
Spd
kts
Gust
kts
29/11:30pm - - - - - S 22 26 12 14 - - -
29/11:00pm - - - - - SSW 19 22 10 12 - - -
29/10:30pm - - - - - WNW 26 37 14 20 - - -
29/10:18pm - - - - - NW 24 30 13 16 - - -
29/10:00pm - - - - - N 37 41 20 22 - - -
29/09:30pm - - - - - N 35 41 19 22 - - -
29/09:00pm - - - - - N 28 30 15 16 - - -
29/08:30pm - - - - - N 28 30 15 16 - - -
29/08:00pm - - - - - N 22 26 12 14 - - -
29/07:30pm - - - - - N 22 26 12 14 - - -
29/07:00pm - - - - - NNW 22 24 12 13 - - -
29/06:30pm - - - - - NW 28 32 15 17 - - -
29/06:00pm - - - - - NNW 28 30 15 16 - - -
29/05:30pm - - - - - NW 24 32 13 17 - - -
29/05:00pm - - - - - NNE 11 13 6 7 - - -
29/04:30pm - - - - - NE 13 17 7 9 - - -
29/04:00pm - - - - - ENE 11 13 6 7 - - -
29/03:30pm - - - - - ENE 13 13 7 7 - - -
29/03:00pm - - - - - NNE 15 22 8 12 - - -
29/02:30pm - - - - - NNE 13 17 7 9 - - -
29/02:00pm - - - - - N 15 17 8 9 - - -
29/01:30pm - - - - - N 19 24 10 13 - - -
29/01:00pm - - - - - NW 22 28 12 15 - - -
29/12:30pm - - - - - NW 28 33 15 18 - - -

Latest Capital City Observations: Canberra | Sydney | Melbourne | Brisbane | Adelaide | Perth | Hobart | Darwin

Other Formats:

Comma delimited format used in spreadsheet applications
http://www.bom.gov.au/fwo/IDV60901/IDV60901.94853.axf

JavaScript Object Notation format (JSON) in row-major order
http://www.bom.gov.au/fwo/IDV60901/IDV60901.94853.json